Location: Newark
(48.5156°N, 1.8989°W)
Time: 05:33:45
(UTC+00:00)

Vanguard 1 Rocket - Pass Details

Date: 20 November 2019
Orbit: 650 x 4226 km, 34.3° (Epoch: 09 December)

Event Time Altitude Azimuth Distance (km) Brightness Sun altitude
Exits shadow 05:28:13 11° 216° (SW) 2,063 9.0 -18.6°
Maximum altitude 05:30:59 17° 177° (S) 1,863 9.1 -18.2°
Drops below altitude 10° 05:34:40 10° 138° (SE) 2,642 10.5 -17.6°
Sets 05:38:50 0° 120° (ESE) 4,086 12.1 -16.9°
